Wind_Speed
24 24 24 24 24 24 24 24 24 24 23 23 24 25 27 25 24 25 26 27 29 30 31 32 32 31 29 28 27 25 25 25 26 27 29 29 29 29
23 23 22 22 22 21 21 21 22 23 23 23 24 25 27 25 24 23 24 24 26 27 28 30 32 32 31 29 27 25 24 24 24 25 27 28 28 28
22 21 21 20 19 20 19 19 20 20 21 23 24 24 26 26 24 23 22 21 21 22 23 25 27 29 30 29 28 26 25 25 24 25 25 26 26 26
21 20 20 19 18 19 19 19 19 19 20 21 23 24 26 28 27 26 23 22 21 20 20 21 23 25 27 28 29 28 27 26 25 25 25 26 25 25
20 20 20 19 18 19 19 20 20 20 21 21 22 25 26 27 28 27 27 25 24 23 23 22 22 23 24 26 27 28 29 29 28 27 27 26 26 26
21 21 21 20 20 20 20 20 20 20 21 22 22 23 25 26 28 30 30 29 28 28 27 26 25 24 24 25 26 27 29 29 29 29 28 28 28 28
22 22 22 22 22 21 21 21 21 20 21 21 22 21 22 24 26 28 28 29 30 30 30 30 29 28 27 27 27 27 28 29 30 30 30 30 31 31
22 23 24 24 23 23 23 23 23 22 22 21 21 22 22 21 22 24 25 27 28 29 31 32 32 31 31 31 30 30 30 31 31 31 32 32 33 33
23 24 23 24 25 25 25 25 24 24 23 23 22 22 23 24 24 24 25 26 27 28 30 32 33 34 34 34 34 34 34 34 34 34 34 34 34 35
24 24 24 24 24 25 25 26 26 25 25 24 24 24 24 24 25 25 25 25 26 28 30 31 33 35 37 37 37 37 37 37 36 36 36 36 36 37
24 23 23 23 23 24 25 25 25 26 26 26 25 25 24 24 24 25 25 26 26 27 28 30 32 34 36 38 39 40 40 40 39 39 38 38 38 38
24 23 24 24 23 23 24 24 24 24 24 24 25 24 24 24 24 25 25 26 26 27 27 28 30 32 34 36 39 41 42 43 43 42 41 41 41 41
24 24 24 24 24 23 23 22 22 22 22 22 22 22 22 23 23 24 25 25 26 26 27 28 29 30 32 34 37 40 41 43 44 45 45 45 45 44
24 24 24 25 25 24 24 22 21 21 20 19 19 19 19 20 21 22 22 24 25 25 26 27 28 29 30 32 34 36 39 41 43 45 46 47 48 48
22 23 24 24 25 25 25 23 22 20 19 18 17 17 17 18 19 20 22 23 24 26 28 30 30 31 32 32 33 34 35 36 39 41 43 45 46 47
18 19 20 22 23 24 24 23 22 20 19 17 16 16 16 17 18 20 21 23 24 26 28 30 32 32 32 33 34 34 35 35 36 38 39 40 41 43
12 12 12 14 17 19 20 20 20 18 17 16 16 16 16 17 18 19 20 22 23 24 25 26 27 29 30 31 31 32 33 34 35 35 36 37 38 39
8 5 2 3 8 11 14 16 16 16 15 14 13 13 14 15 16 17 18 19 20 22 23 25 26 28 29 30 31 32 33 35 35 36 37 37 38 40
12 11 10 9 9 10 10 11 10 10 9 8 8 9 10 11 12 14 16 19 21 22 24 26 27 29 30 31 33 34 34 35 36 37 38 38 39 40
19 17 17 16 15 14 13 11 9 7 4 2 2 4 6 8 11 14 16 18 20 22 24 26 27 28 30 31 32 34 35 36 37 38 39 40 41 42
22 22 21 20 19 18 16 14 12 9 7 5 4 4 6 8 10 12 15 17 19 20 22 24 25 27 28 29 30 32 34 35 36 37 38 39 41 42
25 24 24 23 22 20 18 16 14 12 10 8 7 7 7 9 10 12 14 16 17 19 20 22 23 25 26 26 28 29 31 32 34 35 36 38 39 40
24 24 23 23 22 20 18 16 15 13 12 11 10 9 10 10 11 13 14 16 17 18 20 21 22 24 25 26 26 27 28 29 31 32 34 35 37 38
Wind_Direction
266 267 268 268 268 268 265 262 261 260 259 259 253 248 243 242 243 244 246 248 249 250 249 246 244 243 243 244 245 246 246 247 249 250 250 250 251 252
264 265 266 267 266 265 263 262 260 257 254 252 250 247 240 237 239 242 244 246 248 249 250 248 245 244 244 245 246 245 246 248 252 252 251 250 250 251
262 263 264 263 262 262 261 259 259 255 252 249 248 245 238 234 236 240 243 244 246 248 249 248 246 245 245 246 246 246 247 250 252 252 250 249 248 248
263 262 261 260 258 257 257 257 256 254 252 248 246 243 238 235 236 238 240 243 246 249 250 251 249 248 247 249 249 249 250 251 252 251 250 247 245 246
264 263 261 260 257 255 255 254 253 253 252 252 249 244 240 237 235 235 239 243 246 249 251 252 252 251 250 252 253 253 252 252 252 251 250 248 246 246
265 263 262 260 258 255 254 252 252 253 252 251 251 249 243 240 239 240 242 245 248 250 252 253 254 253 252 252 253 254 253 254 254 253 252 251 251 250
266 263 262 260 258 256 254 253 253 252 252 252 250 251 249 246 245 244 246 249 252 253 252 253 255 254 253 252 252 254 255 255 256 256 255 255 254 254
269 265 262 260 258 256 255 254 253 253 252 252 251 252 253 251 251 249 251 253 254 254 254 254 254 254 254 253 253 254 255 256 257 257 257 257 257 257
269 266 264 260 258 256 255 253 252 252 251 251 250 252 254 256 257 258 259 259 257 256 257 256 255 254 255 255 255 254 255 256 257 257 257 258 258 259
269 267 264 261 259 256 254 252 251 251 251 251 251 252 254 257 260 262 263 263 262 261 260 259 257 256 255 255 255 255 254 256 257 259 259 259 259 260
269 267 264 262 259 255 254 252 250 249 250 251 253 254 256 259 261 262 264 265 266 266 265 264 262 261 258 256 255 255 255 256 258 260 261 260 260 261
270 267 263 261 258 255 254 252 249 249 250 251 253 254 256 259 260 261 263 265 266 267 267 267 266 264 262 260 258 257 256 256 258 259 261 261 261 262
270 267 262 257 255 254 251 249 249 249 250 252 254 256 258 259 261 263 264 264 265 265 265 266 268 268 266 264 263 261 259 258 258 259 261 262 263 263
271 268 263 257 254 252 249 247 248 248 249 252 255 258 260 262 264 265 265 265 263 263 264 266 268 270 270 268 267 265 264 262 261 261 262 262 263 263
274 269 263 257 252 249 248 245 245 245 247 251 255 260 264 266 268 269 269 269 268 266 267 268 271 273 274 274 273 272 271 268 266 264 263 262 262 262
283 273 265 257 249 244 241 239 239 240 244 249 256 264 271 274 276 277 277 276 276 276 276 277 278 278 278 278 278 276 275 274 272 270 268 266 265 265
302 287 271 254 242 235 232 232 231 234 239 247 258 268 276 281 282 284 284 284 284 283 283 282 283 283 283 281 280 278 277 276 276 275 274 272 271 270
3 1 327 216 207 208 210 213 218 226 235 245 260 273 280 284 287 289 290 290 290 289 288 288 287 286 285 284 282 281 279 278 276 275 274 273 272 271
58 65 78 101 126 147 162 175 190 204 220 238 258 274 283 288 292 296 298 299 298 296 295 294 292 290 288 287 285 283 281 279 278 277 275 274 272 271
70 74 83 92 102 112 120 127 135 144 156 182 270 300 307 309 310 311 310 309 307 304 302 300 298 295 293 291 289 287 285 283 281 279 277 276 274 273
73 77 81 86 92 96 100 103 103 102 94 74 41 3 344 335 331 329 327 324 321 318 314 311 307 304 301 298 295 292 290 288 286 283 281 278 277 276
74 77 79 82 85 87 88 88 86 81 73 63 50 35 19 6 357 351 347 344 339 335 330 327 322 319 315 312 308 304 299 296 292 289 287 284 282 279
73 75 76 78 78 79 79 79 77 74 69 62 55 45 35 25 16 9 3 358 354 349 345 341 337 333 329 325 322 318 313 308 303 299 295 291 289 286
Height
5817 5817 5815 5814 5813 5813 5813 5813 5814 5814 5815 5815 5815 5817 5819 5822 5824 5826 5829 5831 5833 5835 5837 5839 5841 5843 5845 5846 5847 5849 5850 5851 5853 5854 5856 5857 5859 5860
5809 5809 5808 5808 5807 5807 5807 5807 5807 5808 5809 5809 5810 5811 5813 5816 5819 5821 5823 5825 5827 5829 5831 5832 5834 5837 5839 5841 5842 5843 5844 5846 5847 5848 5849 5851 5852 5854
5802 5802 5802 5801 5801 5801 5801 5802 5802 5803 5803 5804 5805 5806 5809 5811 5814 5816 5818 5820 5822 5823 5825 5826 5828 5830 5832 5834 5836 5837 5839 5840 5841 5842 5844 5845 5846 5848
5796 5796 5796 5795 5795 5796 5796 5797 5797 5798 5799 5799 5800 5801 5804 5806 5809 5811 5813 5815 5817 5819 5820 5821 5823 5824 5826 5828 5829 5831 5832 5834 5835 5836 5838 5839 5840 5842
5790 5790 5790 5790 5790 5790 5791 5792 5792 5793 5794 5795 5795 5797 5799 5801 5803 5806 5808 5810 5812 5813 5815 5817 5818 5819 5821 5822 5823 5824 5826 5827 5828 5830 5831 5833 5835 5836
5784 5784 5783 5784 5784 5785 5786 5786 5787 5788 5789 5790 5790 5792 5793 5795 5798 5800 5802 5804 5806 5808 5810 5811 5813 5814 5815 5816 5817 5818 5819 5820 5822 5823 5825 5826 5828 5829
5777 5777 5777 5777 5778 5779 5780 5781 5782 5783 5784 5785 5785 5786 5788 5789 5792 5793 5796 5798 5800 5801 5803 5805 5806 5808 5809 5810 5811 5812 5813 5814 5815 5816 5817 5819 5820 5822
5771 5771 5771 5771 5771 5773 5774 5775 5776 5777 5779 5780 5780 5781 5782 5784 5786 5787 5789 5791 5793 5794 5795 5797 5799 5800 5801 5803 5804 5805 5806 5807 5808 5809 5810 5811 5812 5814
5764 5764 5764 5764 5765 5766 5767 5768 5770 5771 5773 5774 5775 5776 5777 5779 5780 5781 5783 5784 5785 5786 5787 5789 5790 5792 5793 5795 5796 5797 5798 5799 5800 5801 5802 5803 5804 5805
5757 5757 5757 5757 5758 5759 5760 5762 5763 5765 5767 5768 5770 5771 5772 5773 5774 5775 5776 5777 5778 5779 5779 5780 5781 5782 5784 5785 5787 5788 5789 5790 5791 5792 5793 5794 5795 5796
5750 5750 5750 5751 5752 5752 5753 5755 5757 5758 5760 5762 5764 5765 5766 5768 5769 5770 5770 5771 5771 5771 5772 5772 5772 5773 5774 5775 5777 5778 5779 5780 5781 5782 5783 5784 5785 5785
5744 5744 5744 5744 5745 5746 5747 5748 5750 5752 5754 5756 5758 5759 5761 5762 5763 5764 5764 5765 5765 5765 5764 5765 5764 5764 5765 5765 5766 5768 5769 5770 5771 5771 5772 5773 5773 5774
5736 5736 5737 5737 5738 5739 5740 5742 5744 5746 5748 5750 5752 5754 5755 5756 5757 5758 5758 5758 5758 5758 5758 5757 5757 5757 5756 5756 5756 5757 5758 5758 5759 5760 5760 5761 5761 5762
5728 5728 5729 5730 5731 5733 5735 5737 5739 5741 5744 5746 5748 5749 5750 5751 5752 5752 5752 5752 5752 5752 5751 5751 5750 5749 5748 5748 5747 5747 5747 5747 5747 5748 5748 5748 5748 5749
5720 5720 5720 5721 5723 5726 5728 5731 5734 5737 5739 5742 5743 5745 5746 5746 5747 5747 5747 5746 5746 5745 5745 5744 5743 5742 5740 5739 5738 5737 5737 5736 5736 5735 5735 5735 5735 5735
5712 5711 5711 5712 5715 5718 5722 5726 5729 5733 5735 5737 5739 5741 5741 5742 5742 5742 5741 5740 5740 5739 5737 5736 5735 5733 5732 5730 5729 5728 5726 5726 5725 5724 5723 5722 5722 5722
5706 5704 5704 5705 5707 5711 5716 5720 5725 5728 5731 5734 5735 5736 5737 5737 5737 5736 5736 5735 5734 5732 5731 5729 5727 5725 5723 5722 5720 5718 5717 5715 5714 5712 5711 5711 5710 5709
5704 5701 5701 5701 5703 5707 5712 5717 5721 5725 5728 5731 5732 5733 5733 5733 5732 5731 5730 5729 5727 5726 5724 5722 5720 5717 5715 5713 5711 5709 5707 5705 5703 5701 5700 5699 5697 5696
5707 5704 5703 5704 5705 5708 5712 5716 5720 5724 5727 5729 5730 5730 5730 5730 5729 5728 5726 5724 5722 5720 5717 5714 5711 5709 5706 5704 5700 5698 5696 5693 5691 5689 5688 5686 5685 5683
5713 5711 5710 5710 5711 5714 5716 5719 5722 5725 5727 5728 5729 5729 5728 5727 5726 5724 5722 5719 5716 5713 5710 5707 5703 5700 5697 5694 5690 5687 5684 5681 5679 5677 5674 5673 5671 5669
5720 5719 5718 5718 5718 5720 5721 5723 5725 5727 5728 5728 5728 5728 5727 5725 5724 5721 5719 5715 5712 5708 5704 5700 5696 5692 5688 5684 5681 5677 5673 5669 5666 5664 5661 5659 5657 5655
5728 5727 5726 5725 5726 5726 5727 5728 5728 5729 5729 5729 5728 5727 5726 5724 5722 5719 5716 5712 5708 5704 5700 5695 5690 5686 5681 5677 5672 5668 5663 5659 5655 5651 5648 5646 5643 5640
5736 5735 5734 5733 5732 5732 5732 5732 5732 5731 5731 5730 5729 5727 5725 5723 5721 5718 5714 5710 5706 5702 5697 5692 5687 5681 5676 5671 5665 5660 5655 5650 5645 5641 5637 5633 5630 5626